Boone, IA

3:44 PM CDT on April 26, 2017 (GMT -0500)
Boone Municipal

Weather History for KBNW - November, 2011

Change the Weather History Date:

Tuesday, November 1, 2011

  Actual Average Record
Temperature  
Mean Temperature 52 °F -  
Max Temperature 69 °F 56 °F 78 °F (1990)
Min Temperature 35 °F 35 °F -99 °F (1998)
Degree Days  
Heating Degree Days 13    
Growing Degree Days 2 (Base 50)    
Moisture  
Dew Point 36 °F    
Average Humidity 59    
Maximum Humidity 81    
Minimum Humidity 38    
Precipitation  
Precipitation 0.00 in - - ()
Sea Level Pressure  
Sea Level Pressure 29.90 in    
Wind  
Wind Speed 9 mph (South)    
Max Wind Speed 16 mph    
Max Gust Speed 22 mph    
Visibility 10 miles    
Events      
Averages and records for this station are not official NWS values.
T = Trace of Precipitation, MM = Missing Value Source: NWS Daily Summary

Daily Weather History Graph

Daily Weather History Graph

Search for Another Location

Airport or City:

Trip Planner

Search our weather history database for the weather conditions in past years. The results will help you decide how hot, cold, wet, or windy it might be!

Date:

Astronomy

Nov. 01, 2011 Rise Set
Actual Time 7:47 AM CDT 6:09 PM CDT
Civil Twilight 7:18 AM CDT 6:38 PM CDT
Nautical Twilight 6:45 AM CDT 7:11 PM CDT
Astronomical Twilight 6:13 AM CDT 7:44 PM CDT
Moon 1:36 PM CDT (11/1) 11:52 PM CDT (11/1)
Length of Visible Light 11h 19m
Length of Day
10h 21m
Waxing Crescent, 40% of the Moon is Illuminated
Nov 1
Waxing Crescent
Nov 2
First Quarter
Nov 10
Full
Nov 18
Last Quarter
Nov 25
New

Hourly Weather History & Observations

Time (CDT) Temp. Windchill Dew Point Humidity Pressure Visibility Wind Dir Wind Speed Gust Speed Precip Events Conditions
12:15 AM 37.4 °F 32.8 °F 28.4 °F 70% 29.97 in 10.0 mi SE 5.8 mph - N/A   Clear
12:35 AM 39.2 °F 33.0 °F 28.4 °F 65% 29.96 in 10.0 mi SE 9.2 mph - N/A   Clear
12:55 AM 37.4 °F 31.4 °F 28.4 °F 70% 29.96 in 10.0 mi SE 8.1 mph - N/A   Clear
1:15 AM 37.4 °F 31.4 °F 28.4 °F 70% 29.96 in 10.0 mi SE 8.1 mph - N/A   Clear
1:35 AM 37.4 °F 32.1 °F 28.4 °F 70% 29.96 in 10.0 mi SE 6.9 mph - N/A   Clear
1:55 AM 37.4 °F 32.1 °F 28.4 °F 70% 29.95 in 10.0 mi SE 6.9 mph - N/A   Clear
2:15 AM 37.4 °F 31.4 °F 28.4 °F 70% 29.94 in 10.0 mi SE 8.1 mph - N/A   Clear
2:35 AM 37.4 °F 31.4 °F 28.4 °F 70% 29.94 in 10.0 mi SE 8.1 mph - N/A   Clear
2:55 AM 37.4 °F 30.8 °F 28.4 °F 70% 29.94 in 10.0 mi SE 9.2 mph - N/A   Clear
3:15 AM 37.4 °F 30.8 °F 28.4 °F 70% 29.93 in 10.0 mi SE 9.2 mph - N/A   Clear
3:35 AM 37.4 °F 30.3 °F 28.4 °F 70% 29.93 in 10.0 mi SE 10.4 mph - N/A   Clear
3:55 AM 37.4 °F 31.4 °F 28.4 °F 70% 29.92 in 10.0 mi SSE 8.1 mph - N/A   Clear
4:15 AM 37.4 °F 31.4 °F 28.4 °F 70% 29.92 in 10.0 mi SSE 8.1 mph - N/A   Clear
4:35 AM 37.4 °F 31.4 °F 28.4 °F 70% 29.91 in 10.0 mi SE 8.1 mph - N/A   Clear
4:55 AM 37.4 °F 30.8 °F 28.4 °F 70% 29.91 in 10.0 mi SE 9.2 mph - N/A   Clear
5:15 AM 37.4 °F 30.8 °F 28.4 °F 70% 29.91 in 10.0 mi SE 9.2 mph - N/A   Clear
5:35 AM 37.4 °F 30.8 °F 30.2 °F 75% 29.91 in 10.0 mi SSE 9.2 mph - N/A   Clear
5:55 AM 37.4 °F 32.8 °F 28.4 °F 70% 29.91 in 10.0 mi SE 5.8 mph - N/A   Clear
6:15 AM 37.4 °F 32.8 °F 30.2 °F 75% 29.91 in 10.0 mi SE 5.8 mph - N/A   Clear
6:35 AM 37.4 °F 32.1 °F 30.2 °F 75% 29.91 in 10.0 mi SE 6.9 mph - N/A   Clear
6:55 AM 35.6 °F 29.9 °F 30.2 °F 81% 29.91 in 10.0 mi SE 6.9 mph - N/A   Clear
7:15 AM 35.6 °F 30.7 °F 30.2 °F 81% 29.90 in 10.0 mi SSE 5.8 mph - N/A   Clear
7:35 AM 35.6 °F 29.2 °F 30.2 °F 81% 29.90 in 10.0 mi SSE 8.1 mph - N/A   Clear
8:15 AM 35.6 °F 30.7 °F 30.2 °F 81% 29.91 in 10.0 mi SSE 5.8 mph - N/A   Clear
8:35 AM 37.4 °F 32.8 °F 32.0 °F 81% 29.92 in 10.0 mi SSE 5.8 mph - N/A   Clear
8:55 AM 41.0 °F 37.1 °F 32.0 °F 70% 29.92 in 10.0 mi SSE 5.8 mph - N/A   Clear
9:15 AM 44.6 °F 40.7 °F 33.8 °F 66% 29.91 in 10.0 mi SSE 6.9 mph - N/A   Clear
9:35 AM 48.2 °F - 35.6 °F 62% 29.92 in 10.0 mi South 10.4 mph - N/A   Clear
9:55 AM 51.8 °F - 37.4 °F 58% 29.91 in 10.0 mi South 11.5 mph 16.1 mph N/A   Clear
10:15 AM 53.6 °F - 39.2 °F 58% 29.91 in 10.0 mi South 16.1 mph 19.6 mph N/A   Clear
10:35 AM 55.4 °F - 41.0 °F 58% 29.91 in 10.0 mi SSW 11.5 mph - N/A   Clear
10:55 AM 57.2 °F - 41.0 °F 55% 29.91 in 10.0 mi SSW 15.0 mph - N/A   Clear
11:15 AM 59.0 °F - 41.0 °F 51% 29.91 in 10.0 mi South 10.4 mph 17.3 mph N/A   Clear
11:35 AM 60.8 °F - 42.8 °F 52% 29.90 in 10.0 mi SSW 13.8 mph 20.7 mph N/A   Clear
11:55 AM 62.6 °F - 42.8 °F 48% 29.89 in 10.0 mi SSW 11.5 mph 19.6 mph N/A   Clear
12:15 PM 64.4 °F - 42.8 °F 45% 29.89 in 10.0 mi SW 13.8 mph 21.9 mph N/A   Clear
12:35 PM 64.4 °F - 42.8 °F 45% 29.88 in 10.0 mi SSW 12.7 mph 18.4 mph N/A   Clear
12:55 PM 64.4 °F - 42.8 °F 45% 29.87 in 10.0 mi SW 11.5 mph - N/A   Clear
1:15 PM 68.0 °F - 42.8 °F 40% 29.86 in 10.0 mi SSW 15.0 mph - N/A   Clear
1:35 PM 68.0 °F - 42.8 °F 40% 29.86 in 10.0 mi SW 9.2 mph - N/A   Clear
1:55 PM 68.0 °F - 42.8 °F 40% 29.86 in 10.0 mi SSW 10.4 mph 17.3 mph N/A   Clear
2:15 PM 68.0 °F - 42.8 °F 40% 29.86 in 10.0 mi SSW 12.7 mph 19.6 mph N/A   Clear
2:35 PM 69.8 °F - 42.8 °F 38% 29.86 in 10.0 mi SW 12.7 mph 19.6 mph N/A   Clear
2:55 PM 69.8 °F - 42.8 °F 38% 29.86 in 10.0 mi SW 11.5 mph - N/A   Clear
3:15 PM 69.8 °F - 42.8 °F 38% 29.86 in 10.0 mi SSW 10.4 mph - N/A   Clear
3:35 PM 69.8 °F - 42.8 °F 38% 29.86 in 10.0 mi South 10.4 mph 17.3 mph N/A   Clear
3:55 PM 69.8 °F - 42.8 °F 38% 29.86 in 10.0 mi SSW 16.1 mph 19.6 mph N/A   Clear
4:15 PM 69.8 °F - 42.8 °F 38% 29.86 in 7.0 mi SSW 11.5 mph - N/A   Clear
4:35 PM 69.8 °F - 44.6 °F 40% 29.86 in 4.0 mi SW 11.5 mph 18.4 mph N/A   Haze
4:55 PM 68.0 °F - 44.6 °F 43% 29.86 in 10.0 mi SW 13.8 mph - N/A   Clear
5:15 PM 68.0 °F - 44.6 °F 43% 29.87 in 10.0 mi SW 9.2 mph - N/A   Clear
5:35 PM 66.2 °F - 44.6 °F 46% 29.88 in 10.0 mi WSW 8.1 mph - N/A   Clear
5:55 PM 64.4 °F - 44.6 °F 49% 29.88 in 10.0 mi WSW 5.8 mph - N/A   Clear
6:15 PM 62.6 °F - 44.6 °F 52% 29.89 in 10.0 mi West 4.6 mph - N/A   Scattered Clouds
6:35 PM 62.6 °F - 44.6 °F 52% 29.89 in 10.0 mi West 3.5 mph - N/A   Clear
6:55 PM 60.8 °F - 44.6 °F 55% 29.90 in 10.0 mi West 3.5 mph - N/A   Clear
7:15 PM 60.8 °F - 44.6 °F 55% 29.90 in 10.0 mi WNW 3.5 mph - N/A   Clear
7:35 PM 55.4 °F - 42.8 °F 63% 29.91 in 10.0 mi NNW 12.7 mph 17.3 mph N/A   Clear
7:55 PM 53.6 °F - 37.4 °F 54% 29.91 in 10.0 mi NNW 9.2 mph - N/A   Clear
8:15 PM 51.8 °F - 35.6 °F 54% 29.91 in 10.0 mi NNW 10.4 mph - N/A   Clear
8:35 PM 51.8 °F - 35.6 °F 54% 29.92 in 10.0 mi NNW 16.1 mph - N/A   Clear
8:55 PM 50.0 °F - 33.8 °F 54% 29.93 in 10.0 mi North 13.8 mph - N/A   Clear
9:15 PM 50.0 °F - 32.0 °F 50% 29.93 in 10.0 mi North 12.7 mph - N/A   Clear
9:35 PM 48.2 °F - 32.0 °F 54% 29.94 in 10.0 mi North 12.7 mph - N/A   Clear
9:55 PM 46.4 °F 41.5 °F 32.0 °F 57% 29.94 in 10.0 mi North 10.4 mph - N/A   Clear
10:15 PM 46.4 °F 41.9 °F 32.0 °F 57% 29.95 in 10.0 mi North 9.2 mph - N/A   Clear
10:35 PM 46.4 °F 41.1 °F 32.0 °F 57% 29.95 in 10.0 mi North 11.5 mph - N/A   Clear
11:15 PM 46.4 °F 41.5 °F 32.0 °F 57% 29.95 in 10.0 mi NNW 10.4 mph - N/A   Scattered Clouds
11:35 PM 44.6 °F 39.7 °F 32.0 °F 61% 29.95 in 10.0 mi North 9.2 mph - N/A   Clear
11:55 PM 44.6 °F 39.2 °F 32.0 °F 61% 29.96 in 10.0 mi North 10.4 mph - N/A   Clear